Date_and_time,latitude,longitude,wind_speed,RelWindDirFrom,WindDirFrom,air_pressure,air_temperature,relative_humidity,Temp,platform_speed_wrt_ground,air_pressure_at_mean_sea_level,platform_orientation
2018-09-27 23:40,52.772515,-97.5919933333333,22.9,26.9,302,985.84,6.3,79,11.69,10.9,1012.94,331.5
2018-09-27 23:50,52.802245,-97.6016716666667,22.2,25.7,309,985.58,6.4,72,11.58,10.9,1012.67,331.5
2018-09-28 00:00,52.8153333333333,-97.6178366666667,15.1,20.9,297,986.14,6.3,67,11.56,5.9,1013.26,336.1
2018-09-28 00:10,52.8178616666667,-97.6189566666667,4.1,9.5,281,986.75,5.7,72,11.27,0.9,1013.92,336.1
2018-09-28 00:20,52.8178666666667,-97.61895,2.8,4.8,275,986.79,5.4,74,11.01,0.0,1013.98,336.1
2018-09-28 00:30,52.8178616666667,-97.6189566666667,3.0,5.8,267,986.86,5.2,77,10.97,0.0,1014.05,336.1
2018-09-28 00:40,52.817865,-97.6189566666667,4.0,8.9,262,986.86,5.0,83,10.96,0.0,1014.07,336.1
2018-09-28 00:50,52.817865,-97.6189583333333,4.9,7.9,261,986.89,5.0,85,10.95,0.0,1014.10,336.1
2018-09-28 01:00,52.817865,-97.61896,3.6,6.7,271,987.01,4.8,87,10.95,0.0,1014.24,335.6
2018-09-28 01:10,52.817865,-97.6189583333333,3.4,9.6,289,987.11,4.8,90,10.97,0.0,1014.35,335.6
2018-09-28 01:20,52.817865,-97.6189583333333,6.2,11.4,325,987.15,5.0,93,10.98,0.0,1014.38,335.6
2018-09-28 01:30,52.817865,-97.6189583333333,18.7,30.0,340,986.48,5.0,96,10.98,0.0,1013.73,335.6
2018-09-28 01:40,52.817865,-97.6189583333333,22.1,29.4,340,986.39,4.4,99,10.99,0.0,1013.66,335.6
2018-09-28 01:50,52.817865,-97.6189583333333,24.5,31.1,345,986.30,4.0,99,11.02,0.0,1013.60,335.6
2018-09-28 02:00,52.817865,-97.61896,25.9,33.0,348,986.34,3.7,99,10.92,0.0,1013.68,338.6
2018-09-28 02:10,52.817865,-97.61896,25.8,31.9,350,986.57,3.4,99,10.87,0.0,1013.95,338.6
2018-09-28 02:20,52.817865,-97.61896,26.9,32.8,351,986.59,3.2,99,10.84,0.0,1013.99,338.6
2018-09-28 02:30,52.817865,-97.61896,26.4,31.2,356,987.03,3.0,99,10.81,0.0,1014.46,338.6
2018-09-28 02:40,52.8178666666667,-97.61896,27.4,32.9,354,986.95,3.0,99,10.80,0.0,1014.39,338.6
2018-09-28 02:50,52.8178666666667,-97.61896,27.7,32.9,3,987.42,2.7,99,10.77,0.0,1014.89,338.6
2018-09-28 03:00,52.817865,-97.61896,28.0,33.5,2,987.32,2.3,99,10.74,0.0,1014.81,345.1
2018-09-28 03:10,52.817865,-97.61896,25.8,30.2,3,988.00,2.2,99,10.71,0.0,1015.49,345.1
2018-09-28 03:20,52.817865,-97.6189583333333,26.8,31.4,357,987.53,2.3,99,10.68,0.0,1015.01,345.1
2018-09-28 03:30,52.8178566666667,-97.618965,24.7,30.4,7,988.13,2.3,99,10.66,0.0,1015.66,345.1
2018-09-28 03:40,52.8178633333333,-97.6189633333333,23.0,28.6,10,988.44,2.2,99,10.64,0.0,1015.99,345.1
2018-09-28 03:50,52.81786,-97.6189616666667,24.6,30.7,3,988.31,2.3,99,10.62,0.0,1015.88,345.1
2018-09-28 04:00,52.81786,-97.61896,23.0,28.1,5,988.42,2.4,97,10.60,0.0,1016.00,360.0
2018-09-28 04:10,52.8178633333333,-97.61894,23.9,28.4,6,988.14,2.3,95,10.58,0.0,1015.73,360.0
2018-09-28 04:20,52.8178633333333,-97.6189483333333,23.6,28.9,6,988.26,2.2,91,10.56,0.0,1015.87,360.0
2018-09-28 04:30,52.8178616666667,-97.6189866666667,22.4,28.5,5,988.43,2.3,94,10.53,0.0,1016.05,360.0
2018-09-28 04:40,52.8178616666667,-97.61897,23.0,28.6,4,988.48,2.2,94,10.51,0.0,1016.11,360.0
2018-09-28 04:50,52.8178566666667,-97.6189516666667,24.1,29.7,3,988.58,2.2,91,10.49,0.0,1016.23,360.0
2018-09-28 05:00,52.817855,-97.6189566666667,23.6,28.9,5,988.70,2.1,92,10.46,0.0,1016.37,145.8
2018-09-28 05:10,52.8178566666667,-97.618965,24.3,30.5,3,988.54,1.9,88,10.44,0.0,1016.21,145.8
2018-09-28 05:20,52.8178583333333,-97.6189666666667,22.7,28.3,8,988.87,2.0,91,10.42,0.0,1016.55,145.8
2018-09-28 05:30,52.81787,-97.618985,21.9,28.7,11,988.99,2.0,89,10.39,0.0,1016.67,145.8
2018-09-28 05:40,52.817855,-97.61902,23.8,30.3,3,988.87,2.0,85,10.36,0.0,1016.54,145.8
2018-09-28 05:50,52.8178633333333,-97.6189616666667,23.1,27.2,8,989.11,2.0,80,10.34,0.0,1016.78,145.8
2018-09-28 06:00,52.8178716666667,-97.6189733333333,21.1,26.0,7,989.25,2.1,80,10.32,0.0,1016.93,301.8
2018-09-28 06:10,52.81786,-97.618965,21.4,27.2,7,989.22,2.1,78,10.30,0.0,1016.90,301.8
2018-09-28 06:20,52.8178583333333,-97.6189633333333,20.8,26.8,12,989.27,2.1,80,10.27,0.0,1016.95,301.8
2018-09-28 06:30,52.8178583333333,-97.6189633333333,21.7,27.9,9,989.31,2.1,81,10.26,0.0,1017.00,301.8
2018-09-28 06:40,52.8178566666667,-97.6189616666667,22.9,28.6,4,989.19,1.9,78,10.23,0.0,1016.88,301.8
2018-09-28 06:50,52.8178566666667,-97.6189633333333,24.0,30.4,2,989.20,1.9,75,10.20,0.0,1016.89,301.8
2018-09-28 07:00,52.8178566666667,-97.618965,22.3,28.3,7,989.40,2.0,76,10.18,0.0,1017.11,270.0
2018-09-28 07:10,52.8178566666667,-97.618965,22.5,27.2,1,989.31,1.9,73,10.16,0.0,1017.01,270.0
2018-09-28 07:20,52.8178566666667,-97.6189633333333,19.6,25.6,12,989.75,1.9,72,10.13,0.0,1017.47,270.0
2018-09-28 07:30,52.8178566666667,-97.6189633333333,18.9,27.0,14,989.82,1.9,74,10.09,0.0,1017.54,270.0
2018-09-28 07:40,52.8178566666667,-97.6189633333333,20.2,27.2,13,989.79,1.7,76,10.07,0.0,1017.51,270.0
2018-09-28 07:50,52.8178566666667,-97.6189633333333,19.5,25.0,14,989.80,1.7,73,10.03,0.0,1017.53,270.0
2018-09-28 08:00,52.8178566666667,-97.618965,18.6,27.1,17,989.87,1.7,72,10.01,0.0,1017.60,270.0
2018-09-28 08:10,52.8178566666667,-97.618965,20.9,26.9,11,989.76,1.7,69,9.99,0.0,1017.48,270.0
2018-09-28 08:20,52.8178683333333,-97.6190133333333,20.2,26.3,9,989.80,1.8,67,9.96,0.0,1017.51,270.0
2018-09-28 08:30,52.8178633333333,-97.6189816666667,20.2,26.4,10,989.84,1.7,67,9.94,0.0,1017.57,270.0
2018-09-28 08:40,52.8178666666667,-97.6189733333333,18.8,23.9,11,990.01,1.7,67,9.93,0.0,1017.75,270.0
2018-09-28 08:50,52.8178666666667,-97.6189716666667,16.9,22.7,15,990.12,1.6,71,9.91,0.0,1017.86,270.0
2018-09-28 09:00,52.817865,-97.61897,17.8,25.0,14,990.20,1.6,75,9.89,0.0,1017.94,145.8
2018-09-28 09:10,52.8178633333333,-97.6189683333333,17.5,23.1,14,990.30,1.4,73,9.86,0.0,1018.06,145.8
2018-09-28 09:20,52.8178633333333,-97.6189666666667,17.8,25.0,13,990.32,1.3,74,9.84,0.0,1018.09,145.8
2018-09-28 09:30,52.8178616666667,-97.6189666666667,18.7,28.2,12,990.32,1.1,73,9.82,0.0,1018.10,145.8
2018-09-28 09:40,52.8178616666667,-97.6189683333333,17.5,24.2,6,990.39,0.8,75,9.80,0.0,1018.20,145.8
2018-09-28 09:50,52.8178616666667,-97.6189683333333,18.6,23.6,358,990.39,0.2,85,9.78,0.0,1018.22,145.8
2018-09-28 10:00,52.8178616666667,-97.6189683333333,17.7,25.6,11,990.58,-0.1,92,9.77,0.0,1018.44,34.2
2018-09-28 10:10,52.8178716666667,-97.618995,17.8,24.6,6,990.58,-0.1,88,9.75,0.0,1018.43,34.2
2018-09-28 10:20,52.81786,-97.61898,17.2,24.7,8,990.65,-0.1,88,9.72,0.0,1018.51,34.2
2018-09-28 10:30,52.8178633333333,-97.6189733333333,15.4,21.0,16,990.81,-0.1,84,9.68,0.0,1018.67,34.2
2018-09-28 10:40,52.8178633333333,-97.61897,14.9,25.8,15,990.88,0.2,81,9.65,0.0,1018.73,34.2
2018-09-28 10:50,52.8178616666667,-97.6189666666667,16.3,20.3,7,990.80,0.0,86,9.61,0.0,1018.66,34.2
2018-09-28 11:00,52.8178616666667,-97.618965,15.1,20.4,13,991.01,-0.0,83,9.57,0.0,1018.89,34.2
2018-09-28 11:10,52.8178616666667,-97.618965,15.7,21.3,4,991.09,-0.2,88,9.56,0.0,1018.99,34.2
2018-09-28 11:20,52.81786,-97.618965,14.1,20.3,358,991.25,-0.4,88,9.53,0.0,1019.18,34.2
2018-09-28 11:30,52.8178616666667,-97.618965,14.3,20.5,2,991.29,-0.7,94,9.52,0.0,1019.24,34.2
2018-09-28 11:40,52.81786,-97.6189616666667,15.2,20.3,11,991.27,-0.4,97,9.50,0.0,1019.24,34.2
2018-09-28 11:50,52.81786,-97.6189616666667,15.8,20.5,11,991.27,-0.6,99,9.48,0.0,1019.26,34.2
2018-09-28 12:00,52.81786,-97.6189616666667,15.4,20.1,19,991.19,-0.5,98,9.46,0.0,1019.17,360.0
2018-09-28 12:10,52.81786,-97.6189616666667,14.9,19.1,23,991.31,-0.4,96,9.42,0.0,1019.30,360.0
2018-09-28 12:20,52.81786,-97.6189616666667,13.3,17.9,23,991.41,-0.6,94,9.39,0.0,1019.41,360.0
2018-09-28 12:30,52.8178616666667,-97.6189616666667,13.2,17.5,27,991.53,-0.4,91,9.35,0.0,1019.50,360.0
2018-09-28 12:40,52.8178616666667,-97.6189616666667,16.6,21.9,12,991.51,-0.4,97,9.33,0.0,1019.50,360.0
2018-09-28 12:50,52.8178616666667,-97.6189616666667,17.3,22.8,9,991.53,-0.4,99,9.31,0.0,1019.52,360.0
2018-09-28 13:00,52.8178616666667,-97.6189616666667,19.9,25.0,14,991.40,-0.4,99,9.31,0.0,1019.39,0.0
2018-09-28 13:10,52.8178616666667,-97.6189616666667,20.2,26.0,13,991.54,-0.5,99,9.30,0.0,1019.56,0.0
2018-09-28 13:20,52.8178616666667,-97.6189616666667,20.1,26.7,12,991.57,-0.4,91,9.28,0.0,1019.59,0.0
2018-09-28 13:30,52.8178616666667,-97.6189616666667,20.6,28.8,10,991.59,-0.5,89,9.26,0.0,1019.60,0.0
2018-09-28 13:40,52.8178616666667,-97.6189616666667,19.1,26.0,20,991.63,-0.7,94,9.23,0.0,1019.67,0.0
2018-09-28 13:50,52.8178616666667,-97.6189616666667,18.1,22.5,20,991.68,-0.7,90,9.19,0.0,1019.72,0.0
2018-09-28 14:00,52.8178566666667,-97.6189633333333,17.6,22.2,25,991.79,-0.5,85,9.15,0.0,1019.81,145.8
2018-09-28 14:10,52.8178566666667,-97.6189616666667,16.6,22.4,26,991.77,-0.4,77,9.11,0.0,1019.79,145.8
2018-09-28 14:20,52.8178583333333,-97.618965,15.7,22.0,24,991.91,-0.3,74,9.10,0.0,1019.93,145.8
2018-09-28 14:30,52.8178583333333,-97.6189633333333,16.8,23.1,26,991.73,-0.0,74,9.08,0.0,1019.72,145.8
2018-09-28 14:40,52.81786,-97.6189616666667,17.2,22.6,13,991.93,-0.2,77,9.07,0.0,1019.93,145.8
2018-09-28 14:50,52.81786,-97.6189633333333,13.6,19.6,7,992.27,-0.3,83,9.06,0.0,1020.29,145.8
2018-09-28 15:00,52.8178616666667,-97.6189383333333,12.9,23.3,334,992.33,-0.1,82,9.05,0.0,1020.36,70.4
2018-09-28 15:10,52.8178583333333,-97.6189616666667,11.3,21.7,330,992.54,-0.5,80,9.08,0.0,1020.58,70.4
2018-09-28 15:20,52.8178583333333,-97.6189583333333,12.1,23.0,338,992.44,0.1,69,9.12,0.0,1020.46,70.4
2018-09-28 15:30,52.8178583333333,-97.6189616666667,12.9,20.8,332,992.64,-0.1,84,9.16,0.0,1020.67,70.4
2018-09-28 15:40,52.8178583333333,-97.6189616666667,12.9,20.0,344,992.61,-0.3,80,9.17,0.0,1020.66,70.4
2018-09-28 15:50,52.8178583333333,-97.61896,14.1,19.7,354,992.51,-0.1,80,9.19,0.0,1020.54,70.4
2018-09-28 16:00,52.8178566666667,-97.61896,11.7,19.4,336,992.64,0.5,66,9.18,0.0,1020.63,135.1
2018-09-28 16:10,52.8178583333333,-97.61896,11.8,18.8,10,992.65,0.3,84,9.14,0.0,1020.65,135.1
2018-09-28 16:20,52.8178583333333,-97.6189616666667,14.1,21.5,340,992.59,0.2,73,9.14,0.0,1020.58,135.1
2018-09-28 16:30,52.8178566666667,-97.61894,14.1,19.1,352,992.51,0.6,70,9.14,0.0,1020.48,135.1
2018-09-28 16:40,52.81786,-97.6189433333333,13.0,20.1,342,992.47,0.8,65,9.14,0.0,1020.44,135.1
2018-09-28 16:50,52.8178583333333,-97.6189516666667,13.6,22.5,342,992.45,1.0,61,9.12,0.0,1020.40,135.1
2018-09-28 17:00,52.8178583333333,-97.6189566666667,12.6,22.2,337,992.60,0.6,71,9.12,0.0,1020.59,90.0
2018-09-28 17:10,52.8178566666667,-97.61896,9.9,16.6,334,993.01,-0.4,80,9.12,0.0,1021.04,90.0
2018-09-28 17:20,52.8178583333333,-97.6189616666667,5.6,14.5,323,993.09,-0.8,90,9.11,0.0,1021.15,90.0
2018-09-28 17:30,52.8178583333333,-97.618965,10.3,15.0,338,992.94,-0.6,85,9.09,0.0,1021.00,90.0
2018-09-28 17:40,52.8178433333333,-97.6189633333333,11.4,16.9,346,992.74,0.1,72,9.09,0.0,1020.74,90.0
2018-09-28 17:50,52.8178583333333,-97.61896,7.3,16.8,301,993.02,-0.2,80,9.07,0.0,1021.01,90.0
2018-09-28 18:00,52.8178566666667,-97.6189666666667,7.8,14.5,268,993.10,-0.9,85,9.05,0.0,1021.14,251.6
2018-09-28 18:10,52.8178566666667,-97.6189633333333,5.1,11.3,267,993.03,-0.6,80,9.06,0.0,1021.06,251.6
2018-09-28 18:20,52.8178583333333,-97.6189616666667,5.4,17.7,300,992.91,0.1,74,9.11,0.0,1020.88,251.6
2018-09-28 18:30,52.8178633333333,-97.6189633333333,7.8,18.5,322,992.87,0.5,70,9.17,0.0,1020.80,251.6
2018-09-28 18:40,52.8178533333333,-97.6189633333333,7.3,16.8,318,992.97,0.4,75,9.20,0.0,1020.90,251.6
2018-09-28 18:50,52.8178533333333,-97.6189616666667,5.4,14.8,286,993.08,0.1,76,9.19,0.0,1021.05,251.6
2018-09-28 19:00,52.817855,-97.6189633333333,6.0,11.8,286,992.95,0.3,68,9.21,0.0,1020.96,270.0
2018-09-28 19:10,52.817855,-97.6189633333333,6.1,15.4,308,993.00,0.8,65,9.20,0.0,1021.01,270.0
2018-09-28 19:20,52.8178566666667,-97.618965,5.6,15.0,312,993.08,0.5,70,9.22,0.0,1021.10,270.0
2018-09-28 19:30,52.8178583333333,-97.618965,4.8,10.7,298,993.07,-0.1,73,9.21,0.0,1021.08,270.0
2018-09-28 19:40,52.81786,-97.618965,4.5,11.9,315,992.96,0.1,68,9.22,0.0,1020.97,270.0
2018-09-28 19:50,52.81786,-97.618965,5.9,15.3,311,992.98,0.3,73,9.24,0.0,1021.01,270.0
2018-09-28 20:00,52.81786,-97.618965,3.5,17.3,274,992.92,-0.4,77,9.26,0.0,1020.98,270.0
2018-09-28 20:10,52.81786,-97.618965,8.2,17.8,303,993.02,-0.5,82,9.28,0.0,1021.05,270.0
2018-09-28 20:20,52.81786,-97.6189666666667,6.3,12.5,316,993.06,-0.6,80,9.30,0.0,1021.07,270.0
2018-09-28 20:30,52.81786,-97.6189666666667,5.2,11.3,285,993.09,-0.4,76,9.31,0.0,1021.10,270.0
2018-09-28 20:40,52.81786,-97.6189683333333,4.3,9.7,277,993.09,-1.0,89,9.33,0.0,1021.15,270.0
2018-09-28 20:50,52.817855,-97.61895,7.9,17.6,325,992.77,-0.4,81,9.34,0.0,1020.78,270.0
2018-09-28 21:00,52.81787,-97.6189583333333,9.3,16.8,335,992.68,0.5,67,9.31,0.0,1020.61,37.6
2018-09-28 21:10,52.81786,-97.61895,6.3,15.5,320,992.79,0.8,68,9.29,0.0,1020.73,37.6
2018-09-28 21:20,52.81786,-97.618955,4.3,10.9,284,992.92,0.7,63,9.30,0.0,1020.89,37.6
2018-09-28 21:30,52.8178633333333,-97.61896,6.2,16.5,317,992.86,1.0,62,9.30,0.0,1020.81,37.6
2018-09-28 21:40,52.8178633333333,-97.6189616666667,5.3,11.4,323,992.86,1.1,59,9.26,0.0,1020.78,37.6
2018-09-28 21:50,52.8178633333333,-97.6189616666667,8.5,15.6,328,992.76,1.3,55,9.19,0.0,1020.71,37.6
2018-09-28 22:00,52.8178633333333,-97.618965,5.8,13.6,320,992.86,1.3,57,9.15,0.0,1020.82,34.2
2018-09-28 22:10,52.8178616666667,-97.618965,7.2,16.0,318,992.85,1.3,56,9.13,0.0,1020.81,34.2
2018-09-28 22:20,52.8178616666667,-97.618965,5.8,11.5,292,992.93,1.0,57,9.09,0.0,1020.91,34.2
2018-09-28 22:30,52.817845,-97.61896,5.7,14.2,307,992.86,1.1,56,9.08,0.0,1020.86,34.2
2018-09-28 22:40,52.8178583333333,-97.61897,5.6,15.0,304,992.82,1.4,54,9.09,0.0,1020.78,34.2
2018-09-28 22:50,52.8178583333333,-97.61897,6.2,14.2,318,992.83,1.5,56,9.07,0.0,1020.73,34.2
2018-09-28 23:00,52.81786,-97.618965,5.0,13.1,288,992.90,1.1,56,9.11,0.0,1020.80,0.0
2018-09-28 23:10,52.81786,-97.618965,5.1,11.9,293,992.88,1.1,56,9.15,0.0,1020.79,0.0
2018-09-28 23:20,52.8178616666667,-97.618965,4.8,13.2,300,992.92,1.2,58,9.15,0.0,1020.81,0.0
2018-09-28 23:30,52.8178566666667,-97.6189583333333,4.8,12.1,287,992.90,1.2,58,9.15,0.0,1020.79,0.0
2018-09-28 23:40,52.8178566666667,-97.618965,6.0,12.8,289,992.92,1.2,56,9.15,0.0,1020.79,0.0
2018-09-28 23:50,52.8178583333333,-97.6189666666667,6.3,14.1,295,992.93,1.4,55,9.15,0.0,1020.79,0.0
